LiveATC.Net - Listen to live air traffic control over the Internet!
Airport/ARTCC Code
Frequency Search
(e.g., 124.400, 128.75)
Site-wide search
 


Browse Feeds
Top 50 Feeds
HF Oceanic Feeds
Coverage Map
Bad Weather Areas

LiveATC FAQ
Offer LiveATC feed
Contact LiveATC.net
Press Inquiries

LiveATC on iPhone
LiveATC on Android

Windows Phone
Windows 8/10

LiveATC Mobile
(Mobile browser)

ATC Audio Archives
Interesting Recordings

LiveATC Forums

Home Page
About LiveATC.net
Make a Donation
Terms of Use
Privacy Policy

Canadian Air Freqs

AIRMETs/SIGMETs

FAA Airport Status
NAS Status
Arrival Demand


Server Software By:
Icecast.org
Liquidsoap

Select an area of interest:
U.S. Feeds: Class B Airports | Class C Airports | Class D/Other Airports | ARTCC (Centers)
International Feeds: Canada | Europe | Oceania | Asia | South America | North/Central America | Africa
Misc Feeds: HF Feeds
Search by ICAO/IATA airport code:   (e.g., kbos, kjfk, lax, eham, etc.)


Currently Available Live Feeds: 2905
Status Updated: Sat Jul 24 2021 01:41:04 UTC


NOTICE

Unauthorized use prohibited. See LiveATC.net Terms of Service

Africa Airport Feeds

 

FIMP Twr/App/Ctr #1 (Archives)
Plaine Magnien, Mauritius

Feed Status: UP
Listen in your browser - HTML5 player(in browser, HTML5)
Click here to listen with your own player(launches your MP3 player)

FIMP 240100Z 22006KT 8000 VCSH FEW008 BKN016 SCT050 19/18 Q1020 RESH


Listeners: 0 out of 1337 total

FIMP Approach: 119.100
FIMP Tower: 118.100
FMEE Approach/Departure: 127.200
Mauritius Centre: 129.300

FIMP Twr/App/Ctr #2 (Archives)
Plaine Magnien, Mauritius

Feed Status: UP
Listen in your browser - HTML5 player(in browser, HTML5)
Click here to listen with your own player(launches your MP3 player)

FIMP 240100Z 22006KT 8000 VCSH FEW008 BKN016 SCT050 19/18 Q1020 RESH


Listeners: 0 out of 1337 total

FIMP Approach: 119.100
FIMP Tower: 118.100
Mauritius Centre: 129.300

FMEE Tower
Sainte-Marie, Reunion

Feed Status: DOWN
Offline since: 2021-05-17 09:38:39 UTC

FMEE 240100Z AUTO 17007KT CAVOK 18/12 Q1020 NOSIG

Gillot Tower: 118.400

FMEP Info (Archives)
Saint-Pierre, Reunion

Feed Status: UP
Listen in your browser - HTML5 player(in browser, HTML5)
Click here to listen with your own player(launches your MP3 player)

FMEP 240100Z AUTO 04008KT CAVOK 19/09 Q1020


Listeners: 0 out of 1337 total

Saint-Pierre Info: 122.400

FMMI Twr/App/Center (Archives)
Antananarivo, Madagascar

Feed Status: UP
Listen in your browser - HTML5 player(in browser, HTML5)
Click here to listen with your own player(launches your MP3 player)

FMMI 240100Z 16002KT 9999 FEW017 SCT020 10/10 Q1023 NOSIG


Listeners: 0 out of 1337 total

Ivato Approach: 125.700
Ivato Tower: 120.100
Tana Control: 128.900

GOBD Gnd/Twr/App (Archives)
Dakar, Senegal

Feed Status: UP
Listen in your browser - HTML5 player(in browser, HTML5)
Click here to listen with your own player(launches your MP3 player)

GOBD 240100Z 30004KT 9999 FEW024 23/18 Q1012 NOSIG


Listeners: 0 out of 1337 total

Dakar Approach/Departure: 120.500
Dakar Ground: 121.800
Dakar Tower: 118.800

HAAB Approach
Addis Ababa, Ethiopia

Feed Status: DOWN
Offline since: 2021-07-17 13:57:05 UTC


Bole Approach: 119.700

HAAB Ground
Addis Ababa, Ethiopia

Feed Status: DOWN
Offline since: 2021-07-17 13:57:05 UTC


Bole Ground: 121.900

HAAB Tower
Addis Ababa, Ethiopia

Feed Status: DOWN
Offline since: 2021-05-11 16:00:38 UTC


Bole Tower: 118.100